Greenville, ME

2:59 AM EST on December 16, 2019 (GMT -0500)
Greenville

Weather History for KGNR - November, 2019

Change the Weather History Date:

Tuesday, November 12, 2019

  Actual Average (KMLT) Record (KMLT)
Temperature  
Mean Temperature 19 °F -  
Max Temperature 26 °F 43 °F 70 °F (1903)
Min Temperature 12 °F 29 °F 11 °F (1949)
Degree Days  
Heating Degree Days 46    
Moisture  
Dew Point 16 °F    
Average Humidity 86    
Maximum Humidity 96    
Minimum Humidity 73    
Precipitation  
Precipitation 0.35 in - - ()
Sea Level Pressure  
Sea Level Pressure 29.74 in    
Wind  
Wind Speed 7 mph ()    
Max Wind Speed 18 mph    
Max Gust Speed 32 mph    
Averages and records for this station are not official NWS values.
T = Trace of Precipitation, MM = Missing Value Source: Averaged Metar Reports

Daily Weather History Graph

Daily Weather History Graph

Search for Another Location

Airport or City:

Astronomy

Nov. 12, 2019 Rise Set
Actual Time 6:32 AM EST 4:11 PM EST
Civil Twilight 6:00 AM EST 4:43 PM EST
Nautical Twilight 5:25 AM EST 5:19 PM EST
Astronomical Twilight 4:50 AM EST 5:53 PM EST
Moon 4:38 PM EST (11/12) 6:18 AM EST (11/12)
Length of Visible Light 10h 42m
Length of Day
9h 38m
Full, 100% of the Moon is Illuminated
Nov 12
Full
Nov 19
Last Quarter
Nov 26
New
Dec 4
First Quarter
Dec 12
Full

Hourly Weather History & Observations

Time (EST) Temp. Windchill Dew Point Humidity Pressure Visibility Wind Dir Wind Speed Gust Speed Precip Events Conditions
12:56 AM 19.9 °F 12.1 °F 17.1 °F 89% 30.01 in - ENE 5.8 mph - 0.07 in   Unknown
1:56 AM 19.9 °F 12.1 °F 17.1 °F 89% 29.96 in - ENE 5.8 mph - 0.04 in   Unknown
2:56 AM 19.9 °F - 17.1 °F 89% 29.89 in - Calm Calm - 0.03 in   Unknown
3:56 AM 21.9 °F 15.7 °F 19.9 °F 92% 29.83 in - East 4.6 mph - 0.01 in   Unknown
4:56 AM 21.9 °F - 21.0 °F 96% 29.79 in - Calm Calm - 0.01 in   Unknown
5:56 AM 23.0 °F 18.4 °F 21.0 °F 92% 29.75 in - SSE 3.5 mph - N/A   Unknown
6:56 AM 25.0 °F 18.1 °F 23.0 °F 92% 29.69 in - SSE 5.8 mph - 0.03 in   Unknown
7:56 AM 25.0 °F 19.3 °F 24.1 °F 96% 29.69 in - Variable 4.6 mph - 0.04 in   Unknown
8:56 AM 26.1 °F 20.5 °F 25.0 °F 96% 29.66 in - WNW 4.6 mph - 0.02 in   Unknown
9:56 AM 21.9 °F 11.7 °F 19.9 °F 92% 29.69 in - NW 9.2 mph - 0.02 in   Unknown
10:56 AM 21.9 °F 11.7 °F 19.9 °F 92% 29.67 in - NW 9.2 mph - 0.04 in   Unknown
11:56 AM 23.0 °F 12.4 °F 19.9 °F 88% 29.63 in - NNW 10.4 mph - 0.02 in   Unknown
12:56 PM 21.9 °F 9.2 °F 19.0 °F 89% 29.64 in - NW 13.8 mph 21.9 mph 0.01 in   Unknown
1:56 PM 21.9 °F 7.8 °F 18.0 °F 85% 29.66 in - NW 17.3 mph 31.1 mph N/A   Unknown
2:56 PM 21.0 °F 8.1 °F 16.0 °F 81% 29.69 in - WNW 13.8 mph 27.6 mph 0.01 in   Unknown
3:56 PM 19.9 °F 4.8 °F 14.0 °F 78% 29.70 in - WNW 18.4 mph 28.8 mph N/A   Unknown
4:56 PM 19.0 °F 3.6 °F 12.9 °F 77% 29.71 in - WNW 18.4 mph 31.1 mph N/A   Unknown
5:56 PM 18.0 °F 3.1 °F 12.0 °F 78% 29.72 in - WNW 16.1 mph 27.6 mph N/A   Unknown
6:56 PM 18.0 °F 4.8 °F 12.0 °F 78% 29.73 in - NW 12.7 mph 32.2 mph N/A   Unknown
7:56 PM 17.1 °F 5.8 °F 10.9 °F 77% 29.73 in - WNW 9.2 mph 20.7 mph N/A   Unknown
9:56 PM 14.0 °F -1.4 °F 7.0 °F 74% 29.74 in - WNW 15.0 mph 25.3 mph N/A   Unknown
10:56 PM 12.9 °F 1.6 °F 7.0 °F 77% 29.74 in - WNW 8.1 mph 19.6 mph N/A   Unknown
11:56 PM 12.0 °F -2.7 °F 5.0 °F 73% 29.75 in - WNW 12.7 mph 24.2 mph N/A   Unknown